Regional Weather Roundup
Issued by NWS

Home | Current Version | Previous Version | Graphics & Text | Print | Product List | Glossary Off
Versions: 1 2 3 4 5 6 7 8 9 10 11 12 13 14 15 16 17 18 19 20 21 22 23 24 25 26 27

000
ASUS45 KBOU 061307
RWRCO

WEATHER ROUNDUP FOR COLORADO
NATIONAL WEATHER SERVICE DENVER/BOULDER CO
700 AM MDT FRI MAY 06 2016

NOTE: "FAIR" INDICATES FEW OR NO CLOUDS BELOW 12000 FEET WITH NO
SIGNIFICANT WEATHER AND/OR OBSTRUCTIONS TO VISIBILITY.

COZ001>005-013-030-031-061400-
...NORTHWEST COLORADO...

CITY           SKY/WX    TMP DP  RH WIND       PRES   REMARKS
CRAIG          CLOUDY    47  37  68 SE6       30.04F
HAYDEN         MOCLDY    48  30  49 E13       30.06F
MEEKER         FAIR      52  34  50 E6        30.03S
MOUNT WERNER   NOT AVBL
STEAMBOAT SPGS FAIR      44  33  65 N7        30.10R
WALDEN         FAIR      37  30  75 SE5       30.16R
$$

COZ006>008-011-061400-
...WEST CENTRAL VALLEYS...

CITY           SKY/WX    TMP DP  RH WIND       PRES   REMARKS
GRAND JUNCTION MOCLDY    60  40  47 S8        29.88R
MONTROSE       FAIR      64  35  34 SE16      29.98R
EAGLE          FAIR      45  34  65 CALM      30.09R
RIFLE          FAIR      54  40  59 E6        29.99R
DELTA          NOT AVBL
NUCLA          NOT AVBL
$$

COZ017>023-064>068-061400-
...SOUTHWEST COLORADO...

CITY           SKY/WX    TMP DP  RH WIND       PRES   REMARKS
DURANGO        CLOUDY    53  36  52 E7        30.03R
CORTEZ         FAIR      62  29  28 SE16      29.96R
PAGOSA SPRINGS CLOUDY    53  32  45 CALM      30.14R
TELLURIDE      CLOUDY    45  37  74 E9G17     30.14F
WOLF CREEK PAS CLOUDY    32  32 100 S9        30.36F WCI  24
$$

COZ009-010-012-014-032>034-037-058>063-061400-
...CENTRAL COLORADO...

CITY           SKY/WX    TMP DP  RH WIND       PRES   REMARKS
ASPEN          FAIR      45  29  53 S8        30.10R
BUENA VISTA    FAIR      40  33  76 NW5       30.19R
COPPER MTN     NOT AVBL
BERTHOUD PASS  FAIR      36  28  75 CALM      30.39R
COTTONWOOD PAS FAIR      48  23  37 E8        30.26R
GUNNISON       FAIR      43  30  61 S3        30.18R
KREMMLING      FAIR      37  32  81 CALM      30.14S
LEADVILLE      FAIR      39  25  57 CALM      30.25R
MONARCH PASS   FAIR      37  23  56 S15       30.46R
SALIDA         FAIR      45  32  60 W3        30.24S
SUNLIGHT       MOCLDY    45  28  53 E5        30.27F
WILKERSON PASS FAIR      37  23  56 S6        30.36R
$$

COZ069>075-061400-
...SAN LUIS VALLEY/SANGRE DE CRISTO MOUNTAINS...

CITY           SKY/WX    TMP DP  RH WIND       PRES   REMARKS
ALAMOSA        FAIR      47  32  56 SE7       30.16R
LA VETA PASS   FAIR      43  21  42 S7        30.28R
SAGUACHE       NOT AVBL
$$

COZ035-036-038>040-061400-
...NORTHERN COLORADO FRONT RANGE...

CITY           SKY/WX    TMP DP  RH WIND       PRES   REMARKS
DENVER INTL AP PTSUNNY   53  39  59 SW8       29.99R
DMNS CITY PARK   N/A     55  38  52 N8        30.00R
AURORA         FAIR      52  39  61 SW3       30.02R
FRONT RANGE AP NOT AVBL
ERIE MUNI ARPT FAIR      47  42  83 SW3       30.00R
BOULDER MUN AP FAIR      52  37  58 SE3       29.99R
CENTENNIAL     PTSUNNY   52  37  56 CALM      30.02R
BROOMFIELD     PTSUNNY   54  39  58 NW5       30.01R
FORT COLLINS   FAIR      50  41  71 N3        29.99R
LONGMONT       FAIR      48  40  74 W5        30.01R
$$

COZ041-046-047-076>085-087-088-061400-
...PIKES PEAK/PALMER DIVIDE AND SOUTHERN FOOTHILLS...

CITY           SKY/WX    TMP DP  RH WIND       PRES   REMARKS
COLO. SPRINGS  FAIR      47  36  65 N6        30.07R
A. F. ACADEMY  MOSUNNY   43  37  81 NW7       30.06R
SCHRIEVER AFB  NOT AVBL
ELLICOTT       FAIR     N/A N/A N/A NE3       30.04R
FALCON         NOT AVBL
FORT CARSON    FAIR      48  39  70 NW7       30.04R
LIMON          FAIR      43  42  97 CALM      30.03R
MONUMENT HILL  FAIR      50  32  50 SW8       30.09S
TRINIDAD       FAIR      63  26  24 SW16      30.05R
$$

COZ042>045-048>051-090-091-061400-
...NORTHEAST COLORADO...

CITY           SKY/WX    TMP DP  RH WIND       PRES   REMARKS
GREELEY ARPT   FAIR      48  45  87 N6        29.99R
AKRON          FAIR      48  44  86 SE9       29.98S
BURLINGTON     FAIR      51  45  79 S15       30.00R
WRAY           NOT AVBL
STERLING       FAIR      50  46  87 S5        29.96R
HOLYOKE        NOT AVBL
FORT MORGAN    FAIR      50  45  81 NE5       29.98R
$$

COZ086-089-092>099-061400-
...SOUTHEAST COLORADO...

CITY           SKY/WX    TMP DP  RH WIND       PRES   REMARKS
PUEBLO         FAIR      49  42  77 CALM      30.01R
LA JUNTA       FAIR      52  43  71 CALM      29.99R
LAMAR          FAIR      50  46  86 CALM      29.97R
SPRINGFIELD      N/A     61  32  33 SW15      30.02R
$$




USA.gov is the U.S. government's official web portal to all federal, state and local government web resources and services.